Regional Weather Roundup
Issued by NWS Boston, MA

Home | Current Version | Previous Version | Text Only | Print | Product List | Glossary On
Versions: 1 2 3 4 5 6 7 8 9 10 11 12 13 14 15 16 17 18 19 20 21 22 23 24 25 26 27 28 29 30 31 32 33 34 35 36 37 38 39 40 41 42 43 44 45 46 47 48 49 50
000
ASUS41 KBOX 262310
RWRBOX

REGIONAL WEATHER ROUNDUP
NATIONAL WEATHER SERVICE TAUNTON MA
600 PM EST FRI DEC 26 2014

NOTE:  "FAIR" INDICATES FEW OR NO CLOUDS BELOW 12,000 FEET WITH NO
SIGNIFICANT WEATHER AND/OR OBSTRUCTIONS TO VISIBILITY.  THE FOLLOWING
OBSERVATION LOCATIONS DO NOT REPORT PRESENT WEATHER...PROVINCETOWN...
SMITHFIELD...BLOCK ISLAND...KEENE...AND OXFORD.

MAZALL-270000-
EASTERN MASSACHUSETTS

CITY           SKY/WX    TMP DP  RH WIND       PRES   REMARKS
BOSTON         CLEAR     46  29  51 W9        30.14R
BEVERLY        CLEAR     40  28  62 SW3       30.12R
LAWRENCE       CLEAR     42  29  59 SW6       30.13R
BEDFORD        CLEAR     38  28  67 CALM      30.12R
BLUE HILL        N/A     41  29  62 W13       30.11R
NORWOOD        CLEAR     42  29  59 SW5       30.14R
MARSHFIELD     CLEAR     39  34  81 CALM      30.15R
PLYMOUTH       CLEAR     38  31  76 SW5       30.14R
TAUNTON        CLEAR     35  31  85 SW3       30.14R
NEW BEDFORD    CLEAR     39  32  76 SW3       30.14R
$$

MAZALL-270000-
CAPE COD AND THE ISLANDS

CITY           SKY/WX    TMP DP  RH WIND       PRES   REMARKS
FALMOUTH       CLEAR     37  32  81 CALM      30.14R
HYANNIS        CLEAR     37  32  82 SW5       30.13R
CHATHAM        CLEAR     40  36  86 W5        30.14S
PROVINCETOWN   CLEAR     43  36  75 SW8       30.13S
NANTUCKET      CLEAR     41  37  86 W7        30.15R
MARTHAS VNYRD  CLEAR     40  35  83 SW6       30.15R
$$

MAZALL-270000-
CENTRAL AND WESTERN MASSACHUSETTS

CITY           SKY/WX    TMP DP  RH WIND       PRES   REMARKS
WORCESTER      CLEAR     37  27  67 W8        30.13R WCI  31
FITCHBURG      CLEAR     41  26  55 W5        30.14R
ORANGE         CLEAR     40  27  59 W3        30.14R
SPRINGFIELD    CLEAR     42  28  56 SW2       30.16R
WESTFIELD      CLEAR     36  27  69 CALM      30.16R
NORTH ADAMS    CLEAR     34  28  79 NW3       30.15R
PITTSFIELD     CLEAR     33  27  78 SW5       30.12R WCI  29
$$

RIZALL-270000-
RHODE ISLAND

CITY           SKY/WX    TMP DP  RH WIND       PRES   REMARKS
PROVIDENCE     CLEAR     41  29  62 SW6       30.16R
NEWPORT        CLEAR     42  30  62 CALM      30.16R
BLOCK ISLAND   CLEAR     45  32  61 W10G16    30.18R
SMITHFIELD     CLEAR     37  25  60 W5        30.14R
WESTERLY       CLEAR     43  36  76 W7        30.19R
$$

CTZALL-270000-
CONNECTICUT

CITY           SKY/WX    TMP DP  RH WIND       PRES   REMARKS
BRADLEY INTL   PTCLDY    41  27  57 W6        30.16R
HARTFORD       CLEAR     41  29  62 SW5       30.18R
BRIDGEPORT     CLEAR     44  36  73 SW3       30.20R
DANBURY        CLEAR     35  28  75 SW3       30.19R
GROTON         CLEAR     42  34  73 W9        30.19R
NEW HAVEN      CLEAR     46  36  68 SW5       30.19R
CHESTER        FAIR      41  32  70 W3        30.19R
MERIDEN        CLEAR     36  30  79 CALM      30.19R
WILLIMANTIC    CLEAR     37  29  72 CALM      30.18R
OXFORD         CLEAR     41  27  56 CALM      30.18R
$$

MEZ002-015-021-024-NHZ003-005-008-011-012-014-VTZ005-008-270000-
NORTHERN NEW ENGLAND

CITY           SKY/WX    TMP DP  RH WIND       PRES   REMARKS
PORTLAND ME    CLEAR     43  29  57 SW5       30.06S
BANGOR ME      PTCLDY    39  26  59 W3        30.02S
CONCORD NH     CLEAR     36  28  73 CALM      30.10R
MANCHESTER NH  MOCLDY    43  28  55 W5        30.10R
NASHUA NH      CLEAR     38  29  70 CALM      30.13R
PORTSMOUTH NH  PTCLDY    42  29  61 W7        30.09R
JAFFREY NH     CLEAR     38  27  64 SW7       30.12R
KEENE NH       CLEAR     37  27  65 SW3       30.14R
BURLINGTON VT  CLEAR     37  28  70 CALM      30.11R
MT. WASHINGTON FOG       16  16 100 NW59        N/A  VSB 1/16WCI -10
$$

NYZ052-076-270000-
EASTERN NEW YORK

CITY           SKY/WX    TMP DP  RH WIND       PRES   REMARKS
ALBANY         PTCLDY    35  28  75 CALM      30.16S
NEW YORK CITY  PTCLDY    48  28  46 W9        30.21R
$$

ANZALL-270000-
MARINE OBSERVATIONS

STATION/POSITION TIME  TEMP    WIND        PRES    VSBY  WAVE
                       AIR SEA DIR/SP/G                  HT/PER
                 (UTC) (F)     (DEG/KT/KT) (MB)    (MI)  (FT/S)
BOSTON BUOY      2250   45 44  270/  6/  8 1020.4R         1/12
BUZZARDS BAY     2200          240/  9/  9 1021.4S
NANTUCKET SOUND  2250   45 45  230/  8/ 10 1020.7R         1
MASS BAY-STELLWA NOT AVBL
ISLE OF SHOALS   2200   45     260/ 12/ 13 1018.3R
S OF BLOCK IS    2208      51                N/A           4/ 9
$$

......................KEY.........................
  SKY/WX - SKY CONDITION/PRESENT WEATHER
  TMP    - TEMPERATURE IN FAHRENHEIT
  DWPT   - DEWPOINT IN FAHRENHEIT
  RH     - RELATIVE HUMIDITY IN PERCENT
  WIND   - DIRECTION AND SPEED IN MPH
  PRES   - MEAN SEA LEVEL PRESSURE IN INCHES OF HG
  WCI    - WIND CHILL INDEX
  VSB    - VISIBILITY IN MILES
  HX     - HEAT INDEX
  TC     - TEMPERATURE IN CELSIUS
  VRB    - VARIABLE WIND DIRECTION
  N/A    - NOT AVAILABLE



USA.gov is the U.S. government's official web portal to all federal, state and local government web resources and services.